| time (UTC) | temp F | wind direction | speed MPH | gust MPH | rain 1hr in | rain 24hr in | rain mn in | humidity % | barometer mb |
| 20260505024553 | 62 | 168 | 3.0 | 11.0 | 0.05 | 0.39 | 0.05 | 94 | 1008.7 |
| 20260505023034 | 62 | 144 | 3.0 | 10.0 | 0.01 | 0.35 | 0.01 | 94 | 1009.2 |
| 20260505021533 | 62 | 148 | 6.0 | 14.0 | 0.00 | 0.34 | 0.00 | 94 | 1008.9 |
| 20260505020014 | 62 | 141 | 9.0 | 22.0 | 0.00 | 0.34 | 0.00 | 94 | 1008.8 |
| 20260505014512 | 62 | 150 | 13.0 | 23.0 | 0.00 | 0.34 | 0.34 | 94 | 1008.8 |
| 20260505013053 | 62 | 140 | 12.0 | 25.0 | 0.00 | 0.34 | 0.34 | 95 | 1009.1 |
| 20260505011555 | 62 | 139 | 10.0 | 20.0 | 0.00 | 0.34 | 0.34 | 95 | 1009.3 |
| 20260505010032 | 62 | 136 | 10.0 | 21.0 | 0.01 | 0.34 | 0.34 | 95 | 1009.6 |
| 20260505004534 | 62 | 133 | 9.0 | 18.0 | 0.02 | 0.34 | 0.34 | 95 | 1010.0 |
| 20260505003011 | 62 | 140 | 10.0 | 18.0 | 0.04 | 0.34 | 0.34 | 95 | 1010.0 |
| 20260505001507 | 61 | 142 | 8.0 | 16.0 | 0.08 | 0.34 | 0.34 | 94 | 1010.3 |
| 20260505000113 | 61 | 140 | 8.0 | 17.0 | 0.10 | 0.33 | 0.33 | 94 | 1010.5 |
| 20260504234546 | 61 | 138 | 8.0 | 20.0 | 0.14 | 0.32 | 0.32 | 94 | 1010.9 |
| 20260504233045 | 61 | 148 | 6.0 | 12.0 | 0.14 | 0.30 | 0.30 | 94 | 1011.2 |
| 20260504231524 | 61 | 171 | 4.0 | 9.0 | 0.11 | 0.26 | 0.26 | 94 | 1011.6 |
| 20260504230026 | 61 | 172 | 5.0 | 11.0 | 0.07 | 0.22 | 0.22 | 94 | 1011.8 |
| 20260504224512 | 61 | 179 | 5.0 | 10.0 | 0.04 | 0.18 | 0.18 | 93 | 1011.8 |
| 20260504223011 | 61 | 163 | 7.0 | 13.0 | 0.03 | 0.16 | 0.16 | 93 | 1011.9 |
| 20260504221514 | 61 | 144 | 7.0 | 14.0 | 0.03 | 0.15 | 0.15 | 93 | 1011.8 |
| 20260504220009 | 61 | 137 | 7.0 | 20.0 | 0.08 | 0.15 | 0.15 | 93 | 1011.8 |
| 20260504214507 | 61 | 134 | 8.0 | 16.0 | 0.12 | 0.14 | 0.14 | 92 | 1012.2 |
| 20260504213008 | 61 | 137 | 7.0 | 18.0 | 0.12 | 0.13 | 0.13 | 92 | 1012.2 |
| 20260504211506 | 61 | 149 | 5.0 | 12.0 | 0.11 | 0.12 | 0.12 | 91 | 1012.7 |
| 20260504210005 | 62 | 136 | 9.0 | 14.0 | 0.05 | 0.06 | 0.06 | 89 | 1012.7 |
| 20260504204545 | 63 | 136 | 4.0 | 12.0 | 0.01 | 0.02 | 0.02 | 88 | 1013.0 |
| 20260504203045 | 63 | 148 | 5.0 | 18.0 | 0.00 | 0.01 | 0.01 | 87 | 1013.3 |
| 20260504201527 | 63 | 140 | 9.0 | 17.0 | 0.00 | 0.01 | 0.01 | 88 | 1013.0 |
| 20260504200037 | 63 | 142 | 9.0 | 20.0 | 0.00 | 0.01 | 0.01 | 88 | 1012.7 |
| 20260504194509 | 63 | 132 | 12.0 | 25.0 | 0.00 | 0.01 | 0.01 | 88 | 1012.6 |
| 20260504193008 | 63 | 140 | 10.0 | 23.0 | 0.00 | 0.01 | 0.01 | 88 | 1012.4 |
| 20260504191556 | 63 | 137 | 12.0 | 24.0 | 0.00 | 0.01 | 0.01 | 88 | 1012.2 |
| 20260504190100 | 63 | 142 | 11.0 | 21.0 | 0.00 | 0.01 | 0.01 | 88 | 1012.2 |
| 20260504184551 | 63 | 136 | 11.0 | 22.0 | 0.00 | 0.01 | 0.01 | 87 | 1012.2 |
| 20260504183047 | 63 | 148 | 9.0 | 22.0 | 0.00 | 0.01 | 0.01 | 86 | 1012.2 |
| 20260504181544 | 63 | 141 | 11.0 | 25.0 | 0.00 | 0.01 | 0.01 | 86 | 1012.2 |
| 20260504180037 | 64 | 145 | 11.0 | 22.0 | 0.00 | 0.01 | 0.01 | 86 | 1012.2 |
| 20260504174535 | 64 | 144 | 12.0 | 27.0 | 0.00 | 0.01 | 0.01 | 85 | 1012.2 |
| 20260504173036 | 64 | 151 | 11.0 | 26.0 | 0.00 | 0.01 | 0.01 | 85 | 1012.1 |
| 20260504171534 | 65 | 142 | 13.0 | 26.0 | 0.00 | 0.01 | 0.01 | 85 | 1012.3 |
| 20260504081531 | 66 | 140 | 10.0 | 28.0 | 0.00 | 0.00 | 0.00 | 73 | 1014.2 |
| 20260504044512 | 61 | 161 | 5.0 | 10.0 | 0.00 | 0.00 | 0.00 | 76 | 1014.0 |
| 20260504043004 | 61 | 163 | 6.0 | 9.0 | 0.00 | 0.00 | 0.00 | 76 | 1013.9 |
| 20260504041543 | 61 | 158 | 5.0 | 10.0 | 0.00 | 0.00 | 0.00 | 76 | 1013.7 |
| 20260504040059 | 61 | 156 | 6.0 | 16.0 | 0.00 | 0.00 | 0.00 | 77 | 1013.6 |
| 20260504034533 | 61 | 137 | 8.0 | 17.0 | 0.00 | 0.00 | 0.00 | 77 | 1013.6 |
| 20260504033020 | 61 | 141 | 7.0 | 15.0 | 0.00 | 0.00 | 0.00 | 76 | 1013.7 |
| 20260504031507 | 61 | 153 | 5.0 | 16.0 | 0.00 | 0.00 | 0.00 | 74 | 1013.8 |
| 20260504030013 | 62 | 155 | 5.0 | 11.0 | 0.00 | 0.00 | 0.00 | 68 | 1013.8 |